Weather History for Dutch Harbor, AK

Change the Weather History Date:

Sunday, January 12, 2014

  Actual Average Record
Temperature  
Mean Temperature 36 °F -  
Max Temperature 39 °F 36 °F 44 °F (2005)
Min Temperature 33 °F 28 °F 15 °F (1951)
Degree Days  
Heating Degree Days 29    
Moisture  
Dew Point 29 °F    
Average Humidity 74    
Maximum Humidity 89    
Minimum Humidity 51    
Precipitation  
Precipitation 0.03 in - - ()
Sea Level Pressure  
Sea Level Pressure 29.05 in    
Wind  
Wind Speed 19 mph (SSW)    
Max Wind Speed 32 mph    
Max Gust Speed 46 mph    
Visibility 8 miles    
Events Rain , Snow    
Averages and records for this station are not official NWS values.
T = Trace of Precipitation, MM = Missing Value Source: NWS Daily Summary

Daily Weather History Graph

Daily Weather History Graph

Search for Another Location

Airport:

Trip Planner

Search our weather history database for the weather conditions in past years. The results will help you decide how hot, cold, wet, or windy it might be!

Date:

Astronomy

Jan. 12, 2014 Rise Set
Actual Time 10:18 AM AKST 6:11 PM AKST
Civil Twilight 9:36 AM AKST 6:52 PM AKST
Nautical Twilight 8:51 AM AKST 7:37 PM AKST
Astronomical Twilight 8:09 AM AKST 8:20 PM AKST
Moon 3:51 PM AKST (1/12) 7:24 AM AKST (1/12)
Length of Visible Light 9h 16m
Length of Day
7h 52m
Waxing Gibbous, 90% of the Moon is Illuminated
Jan 12
Waxing Gibbous
Jan 15
Full
Jan 23
Last Quarter
Jan 30
New
Feb 6
First Quarter

Hourly Weather History & Observations

Time (AKST) Temp. Windchill Dew Point Humidity Pressure Visibility Wind Dir Wind Speed Gust Speed Precip Events Conditions
12:06 AM 35.6 °F 26.2 °F 30.2 °F 81% 28.97 in 10.0 mi South 15.0 mph 21.9 mph N/A Snow Light Snow
12:53 AM 37.4 °F 27.8 °F 30.2 °F 75% 28.98 in 4.0 mi SSW 17.3 mph 25.3 mph N/A Snow Light Snow
12:56 AM 36.0 °F 25.0 °F 30.0 °F 79% 29.00 in 4.0 mi SSW 20.7 mph 26.5 mph N/A Snow Light Snow
12:59 AM 35.6 °F 26.2 °F 30.2 °F 81% 28.99 in 5.0 mi SSW 15.0 mph 26.5 mph N/A Snow Light Snow
1:08 AM 35.6 °F 25.5 °F 30.2 °F 81% 28.99 in 6.0 mi SSW 17.3 mph 25.3 mph N/A Snow Light Snow
1:14 AM 35.6 °F 25.9 °F 28.4 °F 75% 28.99 in 8.0 mi SSW 16.1 mph 31.1 mph N/A Snow Light Snow
1:56 AM 37.9 °F 27.1 °F 28.0 °F 68% 29.01 in 7.0 mi SW 23.0 mph 29.9 mph N/A Snow Light Snow
2:03 AM 35.6 °F 25.9 °F 30.2 °F 81% 29.00 in 4.0 mi SSW 16.1 mph - N/A Snow Light Snow
2:19 AM 37.4 °F 28.9 °F 28.4 °F 70% 28.99 in 9.0 mi SSW 13.8 mph 17.3 mph N/A Snow Light Snow
2:56 AM 37.0 °F 28.5 °F 30.0 °F 76% 29.00 in 6.0 mi South 13.8 mph 24.2 mph N/A Snow Light Snow
3:30 AM 35.6 °F 24.8 °F 30.2 °F 81% 29.00 in 4.0 mi SW 19.6 mph 29.9 mph N/A Snow Light Snow
3:38 AM 35.6 °F 27.1 °F 30.2 °F 81% 29.00 in 5.0 mi South 12.7 mph - N/A Snow Light Snow
3:50 AM 33.8 °F 30.8 °F 30.2 °F 87% 29.00 in 10.0 mi SSE 3.5 mph - N/A Snow Light Snow
3:56 AM 34.0 °F 31.0 °F 30.9 °F 89% 29.02 in 9.0 mi Variable 3.5 mph - N/A Snow Light Snow
4:07 AM 35.6 °F 25.2 °F 30.2 °F 81% 29.00 in 4.0 mi SW 18.4 mph 28.8 mph 0.00 in Snow Light Snow
4:16 AM 35.6 °F 25.9 °F 30.2 °F 81% 29.00 in 3.0 mi SSW 16.1 mph 27.6 mph N/A Snow Light Snow
4:20 AM 35.6 °F 26.2 °F 30.2 °F 81% 28.99 in 5.0 mi South 15.0 mph 25.3 mph N/A Snow Light Snow
4:38 AM 35.6 °F 25.9 °F 30.2 °F 81% 29.00 in 9.0 mi SSW 16.1 mph 26.5 mph N/A Snow Light Snow
4:56 AM 36.0 °F 25.3 °F 28.9 °F 76% 29.00 in 9.0 mi SSW 19.6 mph 25.3 mph N/A Snow Light Snow
5:56 AM 39.0 °F 29.0 °F 27.0 °F 62% 28.99 in 9.0 mi SSW 20.7 mph - N/A   Overcast
6:19 AM 39.2 °F 28.7 °F 26.6 °F 61% 28.97 in 9.0 mi SSW 23.0 mph - N/A Rain Light Rain
6:20 AM 39.2 °F 28.7 °F 26.6 °F 61% 28.97 in 9.0 mi SW 23.0 mph - N/A   Unknown
6:56 AM 37.9 °F 26.3 °F 27.0 °F 65% 28.98 in 9.0 mi SSW 26.5 mph 35.7 mph N/A Snow Light Snow
7:37 AM 39.2 °F 28.7 °F 26.6 °F 61% 28.96 in 10.0 mi SSW 23.0 mph 32.2 mph N/A   Overcast
7:56 AM 37.9 °F 27.3 °F 28.0 °F 68% 28.97 in 10.0 mi SSW 21.9 mph 29.9 mph N/A   Overcast
8:08 AM 37.4 °F 26.6 °F 28.4 °F 70% 28.96 in 10.0 mi SSW 21.9 mph 27.6 mph N/A Snow Light Snow
8:28 AM 35.6 °F 24.8 °F 30.2 °F 81% 28.98 in 4.0 mi SSW 19.6 mph - N/A Snow Light Snow
8:46 AM 35.6 °F 24.5 °F 30.2 °F 81% 28.97 in 9.0 mi SSW 20.7 mph 26.5 mph N/A Snow Light Snow
8:47 AM 35.6 °F 24.5 °F 30.2 °F 81% 28.97 in 9.0 mi SSW 20.7 mph 26.5 mph N/A Snow Light Snow
8:56 AM 36.0 °F 25.6 °F 30.0 °F 79% 28.98 in 9.0 mi SSW 18.4 mph 26.5 mph N/A Snow Light Snow
8:58 AM 37.4 °F 28.2 °F 30.2 °F 75% 28.96 in 9.0 mi SSW 16.1 mph 25.3 mph N/A   Mostly Cloudy
9:04 AM 37.4 °F 26.9 °F 30.2 °F 75% 28.97 in 10.0 mi SSW 20.7 mph 32.2 mph N/A   Mostly Cloudy
9:19 AM 37.4 °F 25.9 °F 30.2 °F 75% 28.97 in 10.0 mi SSW 25.3 mph 29.9 mph N/A   Scattered Clouds
9:56 AM 37.9 °F 28.2 °F 28.9 °F 70% 28.99 in 10.0 mi SSW 18.4 mph 27.6 mph N/A   Scattered Clouds
10:03 AM 37.4 °F 26.9 °F 30.2 °F 75% 28.98 in 10.0 mi SSW 20.7 mph 27.6 mph N/A   Mostly Cloudy
10:18 AM 35.6 °F 24.5 °F 30.2 °F 81% 28.98 in 8.0 mi SSW 20.7 mph - N/A Snow Light Snow
10:28 AM 35.6 °F 24.2 °F 32.0 °F 87% 29.00 in 6.0 mi SSW 21.9 mph - N/A Snow Light Snow
10:33 AM 35.6 °F 24.8 °F 32.0 °F 87% 28.99 in 4.0 mi SSW 19.6 mph 26.5 mph N/A Snow Light Snow
10:35 AM 35.6 °F 25.9 °F 32.0 °F 87% 28.99 in 6.0 mi SSW 16.1 mph 26.5 mph N/A Snow Light Snow
10:44 AM 35.6 °F 25.2 °F 32.0 °F 87% 29.00 in 6.0 mi SSW 18.4 mph 23.0 mph N/A Snow Light Snow
10:49 AM 35.6 °F 25.2 °F 32.0 °F 87% 28.99 in 8.0 mi South 18.4 mph - N/A Snow Light Snow
10:56 AM 35.1 °F 25.2 °F 32.0 °F 89% 29.01 in 8.0 mi SSW 16.1 mph - N/A Snow Light Snow
10:57 AM 35.6 °F 26.2 °F 32.0 °F 87% 29.00 in 5.0 mi SSW 15.0 mph - 0.00 in Snow Light Snow
11:09 AM 35.6 °F 27.5 °F 32.0 °F 87% 28.99 in 8.0 mi SSW 11.5 mph - 0.00 in Snow Light Snow
11:21 AM 37.4 °F 27.5 °F 32.0 °F 81% 29.02 in 8.0 mi SW 18.4 mph 21.9 mph 0.00 in Snow Light Snow
11:33 AM 37.4 °F 28.5 °F 32.0 °F 81% 29.03 in 4.0 mi SW 15.0 mph 20.7 mph 0.01 in Snow Light Snow
11:47 AM 39.2 °F 28.3 °F 30.2 °F 70% 29.03 in 6.0 mi SW 25.3 mph 33.4 mph 0.02 in   Overcast
11:56 AM 39.0 °F 28.3 °F 30.0 °F 70% 29.05 in 6.0 mi WSW 24.2 mph 34.5 mph 0.02 in   Overcast
12:03 PM 39.2 °F 27.2 °F 30.2 °F 70% 29.03 in 8.0 mi SW 31.1 mph 40.3 mph 0.00 in   Unknown
12:04 PM 39.2 °F 27.2 °F 30.2 °F 70% 29.03 in 8.0 mi SW 31.1 mph 40.3 mph 0.00 in   Unknown
12:07 PM 39.2 °F 28.0 °F 30.2 °F 70% 29.03 in 8.0 mi SW 26.5 mph 44.9 mph 0.00 in   Unknown
12:56 PM 39.9 °F 28.4 °F 28.9 °F 65% 29.08 in 8.0 mi SW 29.9 mph 40.3 mph 0.00 in   Unknown
1:08 PM 39.2 °F 27.4 °F 30.2 °F 70% 29.07 in 9.0 mi SW 29.9 mph 43.7 mph 0.00 in   Unknown
1:09 PM 39.2 °F 27.4 °F 28.4 °F 65% 29.07 in 9.0 mi SW 29.9 mph 43.7 mph 0.00 in   Mostly Cloudy
1:31 PM 39.2 °F 28.5 °F 30.2 °F 70% 29.08 in 10.0 mi SW 24.2 mph 32.2 mph 0.00 in   Mostly Cloudy
1:56 PM 39.0 °F 27.6 °F 30.0 °F 70% 29.10 in 10.0 mi SW 27.6 mph 42.6 mph 0.00 in Rain Light Rain
2:00 PM 39.2 °F 27.4 °F 30.2 °F 70% 29.09 in 8.0 mi SW 29.9 mph 46.0 mph 0.00 in   Unknown
2:01 PM 39.2 °F 27.8 °F 30.2 °F 70% 29.09 in 8.0 mi SW 27.6 mph 46.0 mph 0.00 in   Unknown
2:18 PM 37.4 °F 24.6 °F 30.2 °F 75% 29.11 in 6.0 mi SW 32.2 mph 42.6 mph N/A Snow Light Snow
2:19 PM 37.4 °F 25.4 °F 30.2 °F 75% 29.11 in 3.0 mi SW 27.6 mph 42.6 mph N/A Snow Light Snow
2:26 PM 37.4 °F 25.6 °F 32.0 °F 81% 29.11 in 6.0 mi SSW 26.5 mph 42.6 mph N/A Snow Light Snow
2:33 PM 37.4 °F 25.9 °F 32.0 °F 81% 29.11 in 3.0 mi SW 25.3 mph 36.8 mph N/A Snow Light Snow
2:39 PM 37.4 °F 25.4 °F 32.0 °F 81% 29.11 in 5.0 mi WSW 27.6 mph 36.8 mph N/A Snow Light Snow
3:06 PM 37.4 °F 26.6 °F 32.0 °F 81% 29.12 in 5.0 mi WSW 21.9 mph 27.6 mph 0.00 in Snow Light Snow
3:29 PM 39.2 °F 27.6 °F 30.2 °F 70% 29.12 in 10.0 mi WSW 28.8 mph 35.7 mph 0.01 in Rain Light Rain
3:30 PM 39.2 °F 27.2 °F 30.2 °F 70% 29.12 in 10.0 mi WSW 31.1 mph 35.7 mph 0.01 in Rain Light Rain
3:56 PM 39.0 °F 27.6 °F 30.0 °F 70% 29.15 in 10.0 mi WSW 27.6 mph 34.5 mph 0.01 in Rain Light Rain
4:08 PM 39.2 °F 29.3 °F 30.2 °F 70% 29.13 in 10.0 mi SW 20.7 mph 32.2 mph 0.00 in Rain Light Rain
4:54 PM 39.2 °F 27.8 °F 28.4 °F 65% 29.15 in 10.0 mi SW 27.6 mph 35.7 mph 0.00 in Rain Light Rain
4:56 PM 39.9 °F 29.0 °F 27.0 °F 60% 29.17 in 10.0 mi WSW 26.5 mph 34.5 mph 0.00 in Rain Light Rain
5:08 PM 39.2 °F 28.0 °F 26.6 °F 61% 29.16 in 10.0 mi SW 26.5 mph 36.8 mph 0.00 in Rain Light Rain
5:56 PM 39.9 °F 28.8 °F 23.0 °F 51% 29.19 in 10.0 mi WSW 27.6 mph 34.5 mph 0.00 in Rain Light Rain
6:56 PM 39.9 °F 31.4 °F 25.0 °F 55% 29.21 in 10.0 mi SSW 16.1 mph 25.3 mph 0.00 in   Clear
7:56 PM 39.0 °F 29.0 °F 23.0 °F 53% 29.21 in 10.0 mi SSW 20.7 mph 25.3 mph N/A   Clear
8:56 PM 37.9 °F 27.3 °F 26.1 °F 62% 29.23 in 10.0 mi SSW 21.9 mph - N/A   Clear
9:56 PM 37.9 °F 29.6 °F 27.0 °F 65% 29.25 in 10.0 mi SSW 13.8 mph - N/A   Clear
10:56 PM 37.9 °F 31.5 °F 25.0 °F 60% 29.26 in 10.0 mi SSW 9.2 mph - N/A   Clear
11:56 PM 37.9 °F 35.5 °F 23.0 °F 55% 29.27 in 10.0 mi South 3.5 mph - N/A   Mostly Cloudy